Total_Precipitation_Accumulation
0.54 0.51 0.54 0.60 0.61 0.63 0.65 0.63 0.61 0.70 0.74 0.79 0.93 1.16 1.44 1.55 1.65 1.57 1.36 1.29 1.42 1.70 1.94 1.90 1.99 2.05 1.97 1.94 1.93 2.17 2.12 1.82 1.64 1.74 1.59 1.43 1.30 1.47 1.55 1.49 1.59 1.68 1.80
0.44 0.40 0.43 0.47 0.49 0.51 0.56 0.58 0.57 0.65 0.71 0.76 0.93 1.11 1.27 1.27 1.44 1.57 1.53 1.44 1.42 1.57 1.75 2.05 2.19 2.16 2.28 2.38 2.36 2.72 2.85 2.35 1.90 2.02 2.29 2.02 1.82 1.63 1.50 1.55 1.62 1.77 2.00
0.43 0.41 0.39 0.41 0.42 0.42 0.40 0.43 0.48 0.55 0.66 0.81 1.02 1.26 1.48 1.55 1.58 1.50 1.58 1.58 1.49 1.54 1.67 1.84 1.99 2.03 2.17 2.36 2.47 2.79 3.34 3.09 2.41 2.23 2.67 2.45 2.22 2.09 1.78 1.62 1.63 1.70 1.97
0.42 0.47 0.43 0.44 0.41 0.38 0.35 0.38 0.47 0.60 0.81 1.00 1.23 1.49 1.70 1.75 1.61 1.60 1.64 1.53 1.44 1.43 1.55 1.68 1.80 1.92 1.98 2.15 2.23 2.38 2.97 3.37 3.03 2.73 2.42 2.11 2.08 2.27 2.27 1.91 1.71 1.70 1.83
0.41 0.43 0.41 0.44 0.45 0.44 0.45 0.49 0.67 0.89 1.15 1.36 1.63 1.92 1.90 1.78 1.67 1.63 1.62 1.56 1.54 1.50 1.52 1.68 1.74 1.76 1.84 1.98 2.30 2.58 2.89 3.13 3.15 3.13 2.90 2.60 2.34 2.01 2.29 2.35 2.01 1.87 1.83
0.41 0.50 0.56 0.65 0.70 0.73 0.88 1.06 1.30 1.46 1.54 1.67 1.83 1.95 1.90 1.89 1.83 1.65 1.56 1.56 1.60 1.65 1.67 1.72 1.75 1.72 1.76 1.89 2.13 2.45 2.69 3.01 3.25 3.21 3.00 2.86 2.74 2.49 2.43 2.30 2.14 2.15 2.01
0.46 0.62 0.80 0.93 1.06 1.20 1.36 1.50 1.65 1.79 1.73 1.69 1.76 1.81 1.78 1.75 1.73 1.67 1.60 1.53 1.53 1.58 1.60 1.68 1.81 1.88 1.93 2.05 2.22 2.39 2.34 2.54 2.97 3.02 2.88 2.81 2.63 2.56 2.63 2.57 2.25 2.11 1.86
0.64 0.77 0.86 0.98 1.15 1.33 1.41 1.43 1.52 1.63 1.61 1.57 1.56 1.55 1.59 1.59 1.53 1.45 1.42 1.46 1.54 1.52 1.46 1.49 1.60 1.72 1.92 1.97 2.04 2.10 2.06 2.17 2.43 2.55 2.75 2.87 2.66 2.57 2.46 2.43 2.49 2.25 1.96
0.92 1.08 1.20 1.32 1.35 1.40 1.49 1.42 1.43 1.49 1.50 1.46 1.41 1.43 1.42 1.47 1.46 1.37 1.38 1.36 1.35 1.27 1.19 1.18 1.26 1.34 1.42 1.51 1.67 1.78 1.88 1.95 2.08 2.22 2.36 2.53 2.67 2.61 2.44 2.43 2.42 2.40 2.18
1.15 1.46 1.74 1.90 1.72 1.46 1.40 1.40 1.34 1.35 1.45 1.46 1.40 1.39 1.45 1.45 1.42 1.41 1.35 1.32 1.32 1.22 1.14 1.09 1.06 1.05 1.00 1.04 1.23 1.44 1.56 1.67 1.84 2.03 2.16 2.21 2.29 2.48 2.48 2.36 2.38 2.32 2.18
1.29 1.46 1.69 1.89 1.80 1.47 1.25 1.30 1.37 1.38 1.40 1.40 1.42 1.41 1.39 1.28 1.27 1.29 1.26 1.22 1.20 1.23 1.20 1.12 1.07 1.15 1.12 1.06 1.13 1.18 1.24 1.33 1.49 1.63 1.77 1.92 2.18 2.48 2.53 2.51 2.41 2.34 2.24
1.20 1.20 1.27 1.36 1.43 1.29 1.09 1.07 1.23 1.33 1.33 1.32 1.36 1.34 1.24 1.15 1.14 1.13 1.04 0.92 0.86 0.85 0.96 1.08 1.02 1.00 1.02 1.04 1.10 1.11 1.13 1.19 1.31 1.43 1.56 1.74 2.02 2.37 2.59 2.68 2.57 2.44 2.33
1.21 1.18 1.11 1.05 1.09 1.07 1.00 0.98 1.12 1.27 1.33 1.32 1.22 1.12 1.06 1.04 1.06 0.97 0.90 0.85 0.75 0.69 0.71 0.81 0.81 0.90 0.99 1.02 1.06 1.08 1.11 1.15 1.24 1.39 1.45 1.51 1.71 1.92 2.11 2.31 2.44 2.42 2.41
0.93 0.90 0.86 0.79 0.77 0.81 0.86 0.92 1.05 1.14 1.27 1.39 1.31 1.18 1.09 1.06 1.02 0.96 0.91 0.84 0.79 0.78 0.79 0.89 0.92 0.87 0.88 0.93 1.01 1.06 1.05 1.05 1.07 1.14 1.24 1.34 1.41 1.58 1.71 1.83 2.05 2.26 2.49
0.54 0.56 0.61 0.60 0.54 0.53 0.54 0.64 0.80 0.96 1.16 1.40 1.40 1.26 1.20 1.16 1.03 0.95 0.93 0.90 0.91 0.86 0.85 0.93 1.03 1.07 1.03 1.01 1.07 1.02 1.02 1.05 1.03 1.07 1.06 1.13 1.18 1.27 1.45 1.48 1.71 2.02 2.30
0.38 0.41 0.44 0.50 0.42 0.36 0.36 0.39 0.50 0.71 0.88 1.08 1.17 1.15 1.06 0.96 0.93 0.93 0.89 0.83 0.82 0.77 0.73 0.75 0.80 0.88 0.95 1.23 1.16 0.94 0.88 0.95 1.00 1.05 1.04 1.07 1.03 1.01 1.09 1.23 1.35 1.62 1.85
0.31 0.34 0.37 0.42 0.43 0.40 0.36 0.38 0.44 0.53 0.65 0.82 0.94 0.94 0.89 0.80 0.79 0.83 0.80 0.73 0.66 0.66 0.62 0.62 0.60 0.64 0.84 0.98 0.79 0.75 0.76 0.88 0.99 1.07 1.12 1.09 1.02 1.05 1.06 1.10 1.11 1.16 1.36
0.31 0.32 0.35 0.36 0.36 0.37 0.38 0.39 0.40 0.42 0.48 0.57 0.65 0.68 0.69 0.67 0.67 0.68 0.68 0.69 0.64 0.58 0.55 0.59 0.65 0.66 0.72 0.82 0.68 0.63 0.69 0.88 1.01 1.02 0.99 1.08 1.10 1.14 1.19 1.12 1.16 1.10 1.09
0.21 0.21 0.21 0.22 0.24 0.26 0.29 0.32 0.36 0.39 0.37 0.40 0.44 0.49 0.52 0.56 0.60 0.62 0.63 0.73 0.72 0.66 0.62 0.71 0.77 0.72 0.68 0.75 0.71 0.72 0.81 0.93 1.02 0.99 1.00 1.10 1.14 1.31 1.36 1.25 1.31 1.25 1.22
0.12 0.13 0.12 0.11 0.14 0.18 0.22 0.25 0.31 0.36 0.36 0.37 0.38 0.43 0.44 0.47 0.53 0.60 0.61 0.59 0.58 0.61 0.66 0.66 0.61 0.61 0.69 0.80 0.75 0.81 0.94 1.06 1.16 1.13 1.14 1.36 1.32 1.32 1.25 1.19 1.36 1.32 1.19
0.09 0.10 0.10 0.11 0.13 0.16 0.21 0.24 0.30 0.33 0.34 0.40 0.41 0.42 0.43 0.45 0.48 0.47 0.43 0.44 0.49 0.49 0.47 0.48 0.51 0.55 0.69 0.75 0.80 0.97 1.01 1.08 1.23 1.24 1.21 1.18 1.34 1.28 1.20 1.17 1.19 1.34 1.24
0.08 0.08 0.10 0.13 0.12 0.14 0.19 0.25 0.32 0.32 0.33 0.35 0.35 0.34 0.34 0.35 0.37 0.39 0.37 0.35 0.41 0.44 0.45 0.48 0.52 0.55 0.59 0.64 0.70 0.85 0.96 1.03 1.19 1.27 1.15 1.06 1.31 1.26 1.17 1.08 1.08 1.24 1.32
0.09 0.10 0.12 0.18 0.21 0.18 0.20 0.25 0.31 0.36 0.35 0.33 0.28 0.29 0.28 0.30 0.30 0.32 0.36 0.39 0.39 0.41 0.41 0.44 0.50 0.58 0.60 0.60 0.69 0.73 0.80 0.94 1.11 1.19 1.20 1.17 1.21 1.13 1.07 1.15 1.16 1.18 1.20
0.09 0.12 0.17 0.21 0.25 0.24 0.26 0.29 0.32 0.33 0.33 0.30 0.27 0.26 0.26 0.27 0.26 0.29 0.33 0.35 0.36 0.37 0.40 0.46 0.50 0.54 0.58 0.60 0.71 0.82 0.83 0.93 0.99 0.99 1.04 1.03 1.00 1.00 1.00 1.05 1.13 1.17 1.23
0.08 0.12 0.18 0.21 0.23 0.25 0.30 0.34 0.32 0.28 0.28 0.27 0.27 0.24 0.27 0.28 0.26 0.25 0.28 0.33 0.36 0.43 0.49 0.51 0.53 0.53 0.52 0.59 0.72 0.85 0.95 1.09 1.22 1.21 1.06 0.99 0.97 0.94 0.92 0.95 1.00 1.07 1.08
0.11 0.13 0.15 0.18 0.20 0.23 0.28 0.29 0.28 0.24 0.24 0.27 0.26 0.25 0.24 0.24 0.26 0.28 0.26 0.30 0.34 0.44 0.50 0.54 0.54 0.54 0.59 0.60 0.59 0.67 0.84 1.04 1.34 1.59 1.50 1.41 1.27 1.15 1.04 0.98 0.94 0.91 0.94